Time,TemperatureF,DewpointF,PressureIn,WindDirection,WindDirectionDegrees,WindSpeedMPH,WindSpeedGustMPH,Humidity,HourlyPrecipIn,Conditions,Clouds,dailyrainin,SoftwareType,DateUTC
2013-06-27 00:04:00,76.8,70.0,29.88,SW,225,0.0,0.0,79,0.00,,,-99.99,Meteorologica,2013-06-27 05:04:00,
2013-06-27 00:09:00,76.3,69.9,29.88,SW,225,0.0,0.0,80,0.00,,,-99.99,Meteorologica,2013-06-27 05:09:00,
2013-06-27 00:14:00,76.0,69.8,29.87,SW,225,0.0,0.0,80,0.00,,,-99.99,Meteorologica,2013-06-27 05:14:00,
2013-06-27 00:19:00,75.9,69.8,29.88,SW,225,0.0,0.0,81,0.00,,,-99.99,Meteorologica,2013-06-27 05:19:00,
2013-06-27 00:24:00,75.6,69.8,29.88,SW,225,0.0,0.0,82,0.00,,,-99.99,Meteorologica,2013-06-27 05:24:00,
2013-06-27 00:29:00,75.5,69.9,29.88,SW,225,0.0,0.0,82,0.00,,,-99.99,Meteorologica,2013-06-27 05:29:00,
2013-06-27 00:34:00,75.1,69.7,29.88,SW,225,0.0,0.0,83,0.00,,,-99.99,Meteorologica,2013-06-27 05:34:00,
2013-06-27 00:39:00,75.1,69.9,29.88,SW,225,0.0,0.0,83,0.00,,,-99.99,Meteorologica,2013-06-27 05:39:00,
2013-06-27 00:44:00,74.9,69.9,29.88,SW,225,0.0,0.0,84,0.00,,,-99.99,Meteorologica,2013-06-27 05:44:00,
2013-06-27 00:49:00,74.7,70.0,29.88,SW,225,0.0,0.0,85,0.00,,,-99.99,Meteorologica,2013-06-27 05:49:00,
2013-06-27 00:54:00,74.7,70.0,29.88,SW,225,0.0,0.0,85,0.00,,,-99.99,Meteorologica,2013-06-27 05:54:00,
2013-06-27 00:59:00,74.6,69.9,29.88,SW,225,0.0,0.0,85,0.00,,,-99.99,Meteorologica,2013-06-27 05:59:00,
2013-06-27 01:04:00,74.5,69.9,29.88,SW,225,0.0,0.0,85,0.00,,,-99.99,Meteorologica,2013-06-27 06:04:00,
2013-06-27 01:09:00,74.5,69.9,29.88,SW,225,0.0,0.0,85,0.00,,,-99.99,Meteorologica,2013-06-27 06:09:00,
2013-06-27 01:14:00,74.3,69.6,29.88,SW,225,0.0,0.0,85,0.00,,,-99.99,Meteorologica,2013-06-27 06:14:00,
2013-06-27 01:19:00,74.3,69.5,29.88,SW,225,0.0,0.0,85,0.00,,,-99.99,Meteorologica,2013-06-27 06:19:00,
2013-06-27 01:24:00,74.2,69.5,29.88,SW,225,0.0,0.0,85,0.00,,,-99.99,Meteorologica,2013-06-27 06:24:00,
2013-06-27 01:29:00,74.1,69.4,29.89,SW,225,0.0,0.0,85,0.00,,,-99.99,Meteorologica,2013-06-27 06:29:00,
2013-06-27 01:34:00,74.0,69.2,29.88,SW,225,0.0,0.0,85,0.00,,,-99.99,Meteorologica,2013-06-27 06:34:00,
2013-06-27 01:39:00,74.1,69.4,29.89,SW,225,0.0,0.0,85,0.00,,,-99.99,Meteorologica,2013-06-27 06:39:00,
2013-06-27 01:44:00,74.0,69.4,29.88,SW,225,0.0,0.0,85,0.00,,,-99.99,Meteorologica,2013-06-27 06:44:00,
2013-06-27 01:49:00,73.9,69.4,29.89,SW,225,0.0,0.0,85,0.00,,,-99.99,Meteorologica,2013-06-27 06:49:00,
2013-06-27 01:54:00,73.9,69.6,29.89,SW,225,0.0,0.0,86,0.00,,,-99.99,Meteorologica,2013-06-27 06:54:00,
2013-06-27 01:59:00,73.7,69.4,29.89,SW,225,0.0,0.0,86,0.00,,,-99.99,Meteorologica,2013-06-27 06:59:00,
2013-06-27 02:04:00,73.7,69.4,29.89,SW,225,0.0,0.0,86,0.00,,,-99.99,Meteorologica,2013-06-27 07:04:00,
2013-06-27 02:09:00,73.6,69.4,29.89,SW,225,0.0,0.0,86,0.00,,,-99.99,Meteorologica,2013-06-27 07:09:00,
2013-06-27 02:14:00,73.6,69.5,29.89,SW,225,0.0,0.0,86,0.00,,,-99.99,Meteorologica,2013-06-27 07:14:00,
2013-06-27 02:19:00,73.4,69.3,29.89,SW,225,0.0,0.0,87,0.00,,,-99.99,Meteorologica,2013-06-27 07:19:00,
2013-06-27 02:24:00,73.4,69.4,29.89,SW,225,0.0,0.0,87,0.00,,,-99.99,Meteorologica,2013-06-27 07:24:00,
2013-06-27 02:29:00,73.4,69.4,29.91,SW,225,0.0,0.0,87,0.00,,,-99.99,Meteorologica,2013-06-27 07:29:00,
2013-06-27 02:34:00,73.3,69.3,29.89,SW,225,0.0,0.0,87,0.00,,,-99.99,Meteorologica,2013-06-27 07:34:00,
2013-06-27 02:39:00,73.3,69.4,29.90,SW,225,0.0,0.0,87,0.00,,,-99.99,Meteorologica,2013-06-27 07:39:00,
2013-06-27 02:44:00,73.2,69.3,29.90,SW,225,0.0,0.0,87,0.00,,,-99.99,Meteorologica,2013-06-27 07:44:00,
2013-06-27 02:49:00,73.2,69.4,29.89,SW,225,0.0,0.0,87,0.00,,,-99.99,Meteorologica,2013-06-27 07:49:00,
2013-06-27 02:54:00,73.1,69.3,29.89,SW,225,0.0,0.0,88,0.00,,,-99.99,Meteorologica,2013-06-27 07:54:00,
2013-06-27 02:59:00,73.1,69.5,29.90,SW,225,0.0,0.0,88,0.00,,,-99.99,Meteorologica,2013-06-27 07:59:00,
2013-06-27 03:04:00,73.2,69.5,29.90,SW,225,0.0,0.0,88,0.00,,,-99.99,Meteorologica,2013-06-27 08:04:00,
2013-06-27 03:09:00,73.1,69.4,29.90,SW,225,0.0,0.0,88,0.00,,,-99.99,Meteorologica,2013-06-27 08:09:00,
2013-06-27 03:14:00,73.0,69.2,29.90,SW,225,0.0,0.0,88,0.00,,,-99.99,Meteorologica,2013-06-27 08:14:00,
2013-06-27 03:19:00,72.9,69.1,29.90,SW,225,0.0,0.0,87,0.00,,,-99.99,Meteorologica,2013-06-27 08:19:00,
2013-06-27 03:24:00,73.0,69.1,29.90,SW,225,0.0,0.0,87,0.00,,,-99.99,Meteorologica,2013-06-27 08:24:00,
2013-06-27 03:29:00,73.0,68.8,29.90,SW,225,0.0,0.0,86,0.00,,,-99.99,Meteorologica,2013-06-27 08:29:00,
2013-06-27 03:34:00,73.1,68.8,29.91,SW,225,0.0,0.0,86,0.00,,,-99.99,Meteorologica,2013-06-27 08:34:00,
2013-06-27 03:39:00,73.2,68.6,29.91,SW,225,0.0,0.0,85,0.00,,,-99.99,Meteorologica,2013-06-27 08:39:00,
2013-06-27 03:44:00,73.3,68.3,29.90,SW,225,0.0,0.0,84,0.00,,,-99.99,Meteorologica,2013-06-27 08:44:00,
2013-06-27 03:49:00,73.6,68.0,29.90,SW,225,0.0,0.0,82,0.00,,,-99.99,Meteorologica,2013-06-27 08:49:00,
2013-06-27 03:54:00,73.8,68.1,29.90,SW,225,0.0,0.0,82,0.00,,,-99.99,Meteorologica,2013-06-27 08:54:00,
2013-06-27 03:59:00,73.9,68.3,29.91,SW,225,0.0,0.0,82,0.00,,,-99.99,Meteorologica,2013-06-27 08:59:00,
2013-06-27 04:04:00,73.9,68.2,29.90,SW,225,0.0,0.0,82,0.00,,,-99.99,Meteorologica,2013-06-27 09:04:00,
2013-06-27 04:09:00,73.9,67.8,29.90,SW,225,0.0,0.0,80,0.00,,,-99.99,Meteorologica,2013-06-27 09:09:00,
2013-06-27 04:14:00,74.3,67.8,29.91,SW,225,0.0,0.0,79,0.00,,,-99.99,Meteorologica,2013-06-27 09:14:00,
2013-06-27 04:20:00,74.7,67.9,29.90,SSW,193,0.7,3.3,79,0.00,,,-99.99,Meteorologica,2013-06-27 09:20:00,
2013-06-27 04:25:00,75.0,68.0,29.91,SSW,193,0.0,0.0,78,0.00,,,-99.99,Meteorologica,2013-06-27 09:25:00,
2013-06-27 04:31:00,74.9,67.9,29.90,SSW,193,0.0,0.0,78,0.00,,,-99.99,Meteorologica,2013-06-27 09:31:00,
2013-06-27 04:36:00,75.0,67.9,29.90,SSW,193,0.0,0.0,78,0.00,,,-99.99,Meteorologica,2013-06-27 09:36:00,
2013-06-27 04:41:00,75.1,67.9,29.90,SSW,193,0.0,0.0,78,0.00,,,-99.99,Meteorologica,2013-06-27 09:41:00,
2013-06-27 04:46:00,75.4,68.1,29.90,South,179,0.0,4.7,77,0.00,,,-99.99,Meteorologica,2013-06-27 09:46:00,
2013-06-27 04:51:00,75.2,68.0,29.90,South,179,0.0,0.0,78,0.00,,,-99.99,Meteorologica,2013-06-27 09:51:00,
2013-06-27 04:56:00,75.3,68.1,29.90,South,179,0.0,0.0,78,0.00,,,-99.99,Meteorologica,2013-06-27 09:56:00,
2013-06-27 05:01:00,75.4,68.3,29.90,South,179,0.0,0.0,78,0.00,,,-99.99,Meteorologica,2013-06-27 10:01:00,
2013-06-27 05:06:00,75.0,68.0,29.90,SE,142,1.8,4.7,78,0.00,,,-99.99,Meteorologica,2013-06-27 10:06:00,
2013-06-27 05:11:00,75.0,68.0,29.90,SE,142,0.0,0.0,78,0.00,,,-99.99,Meteorologica,2013-06-27 10:11:00,
2013-06-27 05:16:00,75.0,68.0,29.90,SE,134,0.0,3.4,78,0.00,,,-99.99,Meteorologica,2013-06-27 10:16:00,
2013-06-27 05:21:00,75.0,67.8,29.90,SE,134,0.0,0.0,78,0.00,,,-99.99,Meteorologica,2013-06-27 10:21:00,
2013-06-27 05:26:00,75.2,68.1,29.90,SE,134,0.0,0.0,78,0.00,,,-99.99,Meteorologica,2013-06-27 10:26:00,
2013-06-27 05:31:00,75.1,68.0,29.90,SE,139,0.0,0.0,78,0.00,,,-99.99,Meteorologica,2013-06-27 10:31:00,
2013-06-27 05:36:00,75.0,67.8,29.89,SE,139,0.0,0.0,78,0.00,,,-99.99,Meteorologica,2013-06-27 10:36:00,
2013-06-27 05:41:00,75.0,67.8,29.90,SSE,153,0.0,4.7,78,0.00,,,-99.99,Meteorologica,2013-06-27 10:41:00,
2013-06-27 05:46:00,75.1,67.8,29.89,SSE,151,0.8,4.7,77,0.00,,,-99.99,Meteorologica,2013-06-27 10:46:00,
2013-06-27 05:51:00,75.2,67.8,29.89,SW,218,2.4,6.7,77,0.00,,,-99.99,Meteorologica,2013-06-27 10:51:00,
2013-06-27 05:56:00,75.3,67.7,29.89,South,175,2.4,4.7,77,0.00,,,-99.99,Meteorologica,2013-06-27 10:56:00,
2013-06-27 06:01:00,75.4,67.9,29.89,South,180,0.0,5.0,77,0.00,,,-99.99,Meteorologica,2013-06-27 11:01:00,
2013-06-27 06:06:00,75.2,67.7,29.90,SSE,167,0.8,3.0,77,0.00,,,-99.99,Meteorologica,2013-06-27 11:06:00,
2013-06-27 06:11:00,75.2,67.8,29.89,SSW,193,1.0,4.4,77,0.00,,,-99.99,Meteorologica,2013-06-27 11:11:00,
2013-06-27 06:16:00,75.2,67.7,29.89,SSE,153,0.1,3.3,77,0.00,,,-99.99,Meteorologica,2013-06-27 11:16:00,
2013-06-27 06:21:00,75.1,67.6,29.88,SSE,148,0.0,4.3,77,0.00,,,-99.99,Meteorologica,2013-06-27 11:21:00,
2013-06-27 06:26:00,75.3,67.8,29.88,SSE,148,0.0,0.0,77,0.00,,,-99.99,Meteorologica,2013-06-27 11:26:00,
2013-06-27 06:31:00,75.3,67.6,29.88,SSE,148,0.0,0.0,76,0.00,,,-99.99,Meteorologica,2013-06-27 11:31:00,
2013-06-27 06:36:00,75.4,67.6,29.88,SSE,148,0.0,0.0,76,0.00,,,-99.99,Meteorologica,2013-06-27 11:36:00,
2013-06-27 06:41:00,75.3,67.5,29.88,SSE,148,0.0,0.0,76,0.00,,,-99.99,Meteorologica,2013-06-27 11:41:00,
2013-06-27 06:46:00,75.4,67.6,29.88,SSE,148,0.0,0.0,76,0.00,,,-99.99,Meteorologica,2013-06-27 11:46:00,
2013-06-27 06:51:00,75.5,67.3,29.88,SSE,148,0.0,0.0,75,0.00,,,-99.99,Meteorologica,2013-06-27 11:51:00,
2013-06-27 06:56:00,76.1,67.6,29.89,SSW,194,2.1,5.1,74,0.00,,,-99.99,Meteorologica,2013-06-27 11:56:00,
2013-06-27 07:01:00,76.2,67.3,29.90,SSW,196,0.9,3.2,73,0.00,,,-99.99,Meteorologica,2013-06-27 12:01:00,
2013-06-27 07:06:00,76.5,67.7,29.90,SSW,196,0.0,0.0,73,0.00,,,-99.99,Meteorologica,2013-06-27 12:06:00,
2013-06-27 07:11:00,76.7,68.0,29.91,SSW,196,0.0,0.0,74,0.00,,,-99.99,Meteorologica,2013-06-27 12:11:00,
2013-06-27 07:16:00,77.0,68.4,29.91,SSW,196,0.0,0.0,74,0.00,,,-99.99,Meteorologica,2013-06-27 12:16:00,
2013-06-27 07:21:00,77.1,68.3,29.91,SSW,196,0.0,0.0,73,0.00,,,-99.99,Meteorologica,2013-06-27 12:21:00,
2013-06-27 07:26:00,77.2,68.2,29.91,South,180,0.0,3.3,73,0.00,,,-99.99,Meteorologica,2013-06-27 12:26:00,
2013-06-27 07:31:00,77.3,68.3,29.90,SSW,209,2.9,5.2,73,0.00,,,-99.99,Meteorologica,2013-06-27 12:31:00,
2013-06-27 07:36:00,77.7,68.7,29.89,SSE,149,0.8,4.3,73,0.00,,,-99.99,Meteorologica,2013-06-27 12:36:00,
2013-06-27 07:41:00,77.5,68.7,29.89,SSE,148,0.0,4.4,74,0.00,,,-99.99,Meteorologica,2013-06-27 12:41:00,
2013-06-27 07:46:00,77.8,68.9,29.89,SSE,148,0.0,0.0,73,0.00,,,-99.99,Meteorologica,2013-06-27 12:46:00,
2013-06-27 07:51:00,77.8,69.1,29.90,SSE,148,0.0,0.0,74,0.00,,,-99.99,Meteorologica,2013-06-27 12:51:00,
2013-06-27 07:56:00,77.9,69.4,29.91,SSE,148,0.0,0.0,74,0.00,,,-99.99,Meteorologica,2013-06-27 12:56:00,
2013-06-27 08:01:00,77.8,69.4,29.92,SSE,148,0.0,0.0,75,0.00,,,-99.99,Meteorologica,2013-06-27 13:01:00,
2013-06-27 08:06:00,77.5,69.4,29.93,SSE,148,0.0,0.0,75,0.00,,,-99.99,Meteorologica,2013-06-27 13:06:00,
2013-06-27 08:11:00,77.7,69.8,29.93,SSE,148,0.0,0.0,76,0.00,,,-99.99,Meteorologica,2013-06-27 13:11:00,
2013-06-27 08:16:00,77.4,69.6,29.94,SSE,148,0.0,0.0,76,0.00,,,-99.99,Meteorologica,2013-06-27 13:16:00,
2013-06-27 08:21:00,77.4,69.8,29.94,SSE,148,0.0,0.0,77,0.00,,,-99.99,Meteorologica,2013-06-27 13:21:00,
2013-06-27 08:26:00,77.3,69.9,29.94,SSE,148,0.0,0.0,77,0.00,,,-99.99,Meteorologica,2013-06-27 13:26:00,
2013-06-27 08:31:00,77.2,69.9,29.94,SSE,148,0.0,0.0,77,0.00,,,-99.99,Meteorologica,2013-06-27 13:31:00,
2013-06-27 08:36:00,77.1,70.0,29.94,SSE,148,0.0,0.0,78,0.00,,,-99.99,Meteorologica,2013-06-27 13:36:00,
2013-06-27 08:41:00,77.0,70.0,29.94,SSE,148,0.0,0.0,78,0.00,,,-99.99,Meteorologica,2013-06-27 13:41:00,
2013-06-27 08:46:00,77.1,70.0,29.94,SSE,148,0.0,0.0,78,0.00,,,-99.99,Meteorologica,2013-06-27 13:46:00,
2013-06-27 08:51:00,77.0,70.1,29.94,SSE,148,0.0,0.0,79,0.00,,,-99.99,Meteorologica,2013-06-27 13:51:00,
2013-06-27 08:56:00,77.0,70.6,29.96,NNE,28,3.7,6.6,80,0.00,,,-99.99,Meteorologica,2013-06-27 13:56:00,
2013-06-27 09:01:00,76.8,69.8,29.96,North,350,0.0,9.7,78,0.00,,,-99.99,Meteorologica,2013-06-27 14:01:00,
2013-06-27 09:06:00,76.8,69.8,29.95,North,350,0.0,0.0,78,0.00,,,-99.99,Meteorologica,2013-06-27 14:06:00,
2013-06-27 09:12:00,76.6,69.9,29.95,North,350,0.0,0.0,79,0.00,,,-99.99,Meteorologica,2013-06-27 14:12:00,
2013-06-27 09:17:00,76.3,70.0,29.98,NNE,16,5.4,9.0,80,0.00,,,-99.99,Meteorologica,2013-06-27 14:17:00,
2013-06-27 09:22:00,76.4,69.9,29.98,SE,129,3.9,5.8,80,0.00,,,-99.99,Meteorologica,2013-06-27 14:22:00,
2013-06-27 09:27:00,76.3,69.2,29.96,ENE,77,2.7,7.1,78,0.00,,,-99.99,Meteorologica,2013-06-27 14:27:00,
2013-06-27 09:32:00,76.3,69.1,29.97,ENE,60,4.6,6.3,78,0.00,,,-99.99,Meteorologica,2013-06-27 14:32:00,
2013-06-27 09:37:00,76.4,68.5,29.97,NE,48,3.1,10.5,76,0.00,,,-99.99,Meteorologica,2013-06-27 14:37:00,
2013-06-27 09:42:00,76.6,69.2,29.97,NNE,15,3.6,8.8,77,0.00,,,-99.99,Meteorologica,2013-06-27 14:42:00,
2013-06-27 09:47:00,76.1,68.4,29.96,NE,47,2.7,9.6,76,0.00,,,-99.99,Meteorologica,2013-06-27 14:47:00,
2013-06-27 09:52:00,75.7,68.3,29.96,ENE,70,2.7,10.1,77,0.00,,,-99.99,Meteorologica,2013-06-27 14:52:00,
2013-06-27 09:57:00,75.7,68.5,29.96,ENE,63,0.0,7.3,78,0.00,,,-99.99,Meteorologica,2013-06-27 14:57:00,
2013-06-27 10:02:00,75.7,68.7,29.95,ENE,71,1.5,5.5,78,0.00,,,-99.99,Meteorologica,2013-06-27 15:02:00,
2013-06-27 10:07:00,75.3,68.2,29.96,NE,53,4.5,8.6,78,0.00,,,-99.99,Meteorologica,2013-06-27 15:07:00,
2013-06-27 10:12:00,75.3,68.2,29.97,WSW,249,2.4,9.5,78,0.00,,,-99.99,Meteorologica,2013-06-27 15:12:00,
2013-06-27 10:17:00,75.2,68.1,29.98,NE,37,4.3,11.4,78,0.00,,,-99.99,Meteorologica,2013-06-27 15:17:00,
2013-06-27 10:22:00,75.0,67.8,29.99,NE,38,0.0,1.6,78,0.00,,,-99.99,Meteorologica,2013-06-27 15:22:00,
2013-06-27 10:27:00,74.8,67.6,29.97,NE,38,0.0,0.0,78,0.00,,,-99.99,Meteorologica,2013-06-27 15:27:00,
2013-06-27 10:32:00,74.9,67.9,29.95,ENE,70,0.4,4.2,78,0.00,,,-99.99,Meteorologica,2013-06-27 15:32:00,
2013-06-27 10:37:00,75.0,67.8,29.93,SE,124,1.3,6.6,77,0.00,,,-99.99,Meteorologica,2013-06-27 15:37:00,
2013-06-27 10:42:00,75.0,67.9,29.92,NNE,28,1.5,7.3,78,0.00,,,-99.99,Meteorologica,2013-06-27 15:42:00,
2013-06-27 10:47:00,75.2,67.4,29.92,SSE,150,1.2,6.2,76,0.00,,,-99.99,Meteorologica,2013-06-27 15:47:00,
2013-06-27 10:52:00,75.7,67.6,29.92,ESE,104,0.1,3.4,75,0.00,,,-99.99,Meteorologica,2013-06-27 15:52:00,
2013-06-27 10:57:00,76.3,67.4,29.91,South,176,3.3,7.8,73,0.00,,,-99.99,Meteorologica,2013-06-27 15:57:00,
2013-06-27 11:02:00,77.0,67.6,29.92,South,182,4.4,9.9,72,0.00,,,-99.99,Meteorologica,2013-06-27 16:02:00,
2013-06-27 11:07:00,77.7,68.1,29.93,SE,129,2.1,8.4,71,0.00,,,-99.99,Meteorologica,2013-06-27 16:07:00,
2013-06-27 11:12:00,78.1,68.5,29.93,SE,124,3.1,5.6,71,0.00,,,-99.99,Meteorologica,2013-06-27 16:12:00,
2013-06-27 11:17:00,78.7,69.0,29.93,ESE,108,0.0,4.5,71,0.00,,,-99.99,Meteorologica,2013-06-27 16:17:00,
2013-06-27 11:22:00,79.1,68.8,29.93,SE,124,2.9,5.7,70,0.00,,,-99.99,Meteorologica,2013-06-27 16:22:00,
2013-06-27 11:27:00,79.7,68.7,29.93,SSE,161,4.4,9.2,68,0.00,,,-99.99,Meteorologica,2013-06-27 16:27:00,
2013-06-27 11:32:00,80.1,68.9,29.94,ENE,69,0.3,7.6,69,0.00,,,-99.99,Meteorologica,2013-06-27 16:32:00,
2013-06-27 11:37:00,80.1,68.7,29.94,South,170,0.3,7.4,67,0.00,,,-99.99,Meteorologica,2013-06-27 16:37:00,
2013-06-27 11:42:00,79.8,69.1,29.93,ESE,104,1.0,5.7,69,0.00,,,-99.99,Meteorologica,2013-06-27 16:42:00,
2013-06-27 11:47:00,79.7,68.9,29.93,ESE,110,0.2,8.8,69,0.00,,,-99.99,Meteorologica,2013-06-27 16:47:00,
2013-06-27 11:52:00,80.1,68.9,29.94,SSE,157,3.1,9.5,67,0.00,,,-99.99,Meteorologica,2013-06-27 16:52:00,
2013-06-27 11:57:00,80.5,69.6,29.94,NE,45,0.9,7.5,69,0.00,,,-99.99,Meteorologica,2013-06-27 16:57:00,
2013-06-27 12:02:00,81.2,69.7,29.95,North,352,1.2,7.8,68,0.00,,,-99.99,Meteorologica,2013-06-27 17:02:00,
2013-06-27 12:07:00,81.4,70.0,29.95,SE,125,3.3,7.0,68,0.00,,,-99.99,Meteorologica,2013-06-27 17:07:00,
2013-06-27 12:12:00,81.7,70.3,29.96,South,173,3.8,8.4,67,0.00,,,-99.99,Meteorologica,2013-06-27 17:12:00,
2013-06-27 12:17:00,81.8,70.6,29.96,SE,146,0.0,5.0,68,0.00,,,-99.99,Meteorologica,2013-06-27 17:17:00,
2013-06-27 12:22:00,81.9,70.6,29.95,South,177,2.2,7.1,68,0.00,,,-99.99,Meteorologica,2013-06-27 17:22:00,
2013-06-27 12:27:00,82.0,70.2,29.95,SSE,147,3.6,9.2,67,0.00,,,-99.99,Meteorologica,2013-06-27 17:27:00,
2013-06-27 12:32:00,82.4,71.0,29.94,SE,129,1.6,7.8,68,0.00,,,-99.99,Meteorologica,2013-06-27 17:32:00,
2013-06-27 12:37:00,82.8,71.3,29.94,SSE,165,2.7,9.6,67,0.00,,,-99.99,Meteorologica,2013-06-27 17:37:00,
2013-06-27 12:42:00,83.2,71.1,29.93,SSW,213,3.3,7.3,66,0.00,,,-99.99,Meteorologica,2013-06-27 17:42:00,
2013-06-27 12:47:00,83.0,71.1,29.91,SE,136,4.8,11.3,66,0.00,,,-99.99,Meteorologica,2013-06-27 17:47:00,
2013-06-27 12:52:00,83.0,71.4,29.91,SSW,201,4.9,11.3,67,0.00,,,-99.99,Meteorologica,2013-06-27 17:52:00,
2013-06-27 12:57:00,83.4,71.6,29.91,South,191,5.8,10.4,67,0.00,,,-99.99,Meteorologica,2013-06-27 17:57:00,
2013-06-27 13:02:00,84.0,71.5,29.92,ESE,123,3.9,10.8,65,0.00,,,-99.99,Meteorologica,2013-06-27 18:02:00,
2013-06-27 13:07:00,84.4,72.6,29.92,South,190,1.4,6.0,67,0.00,,,-99.99,Meteorologica,2013-06-27 18:07:00,
2013-06-27 13:12:00,84.7,72.1,29.92,South,176,2.8,6.6,65,0.00,,,-99.99,Meteorologica,2013-06-27 18:12:00,
2013-06-27 13:17:00,84.7,72.3,29.93,SW,227,0.4,8.6,65,0.00,,,-99.99,Meteorologica,2013-06-27 18:17:00,
2013-06-27 13:22:00,84.4,72.4,29.93,ESE,112,0.4,6.9,66,0.00,,,-99.99,Meteorologica,2013-06-27 18:22:00,
2013-06-27 13:27:00,83.9,72.2,29.92,SSE,167,2.5,6.4,67,0.00,,,-99.99,Meteorologica,2013-06-27 18:27:00,
2013-06-27 13:32:00,83.4,71.9,29.91,South,169,2.1,6.0,68,0.00,,,-99.99,Meteorologica,2013-06-27 18:32:00,
2013-06-27 13:37:00,82.9,71.9,29.91,ESE,118,2.7,7.1,68,0.00,,,-99.99,Meteorologica,2013-06-27 18:37:00,
2013-06-27 13:42:00,82.7,72.2,29.95,NNW,341,2.7,6.5,70,0.00,,,-99.99,Meteorologica,2013-06-27 18:42:00,
2013-06-27 13:47:00,82.4,72.1,29.96,North,359,3.5,5.6,70,0.00,,,-99.99,Meteorologica,2013-06-27 18:47:00,
2013-06-27 13:52:00,82.0,71.5,29.96,ESE,121,4.5,7.7,70,0.00,,,-99.99,Meteorologica,2013-06-27 18:52:00,
2013-06-27 13:57:00,81.6,71.5,30.00,SE,126,0.2,4.2,71,0.00,,,-99.99,Meteorologica,2013-06-27 18:57:00,
2013-06-27 14:02:00,81.5,71.9,30.00,ENE,64,0.0,4.6,72,0.00,,,-99.99,Meteorologica,2013-06-27 19:02:00,
2013-06-27 14:07:00,80.8,71.5,29.98,SW,232,0.3,3.4,72,0.00,,,-99.99,Meteorologica,2013-06-27 19:07:00,
2013-06-27 14:12:00,80.2,73.3,29.91,SSW,192,5.1,7.0,79,0.00,,,-99.99,Meteorologica,2013-06-27 19:12:00,
2013-06-27 14:17:00,79.0,73.3,29.90,South,171,2.6,9.4,82,0.00,,,-99.99,Meteorologica,2013-06-27 19:17:00,
2013-06-27 14:22:00,78.0,73.4,29.92,WSW,247,0.0,4.8,85,0.00,,,-99.99,Meteorologica,2013-06-27 19:22:00,
2013-06-27 14:27:00,77.1,72.8,29.93,South,176,2.6,7.4,86,0.00,,,-99.99,Meteorologica,2013-06-27 19:27:00,
2013-06-27 14:32:00,76.7,72.6,29.93,ESE,116,6.5,12.3,87,0.00,,,-99.99,Meteorologica,2013-06-27 19:32:00,
2013-06-27 14:37:00,76.5,72.7,29.91,SSE,156,3.5,12.5,88,0.00,,,-99.99,Meteorologica,2013-06-27 19:37:00,
2013-06-27 14:42:00,76.3,72.5,29.91,SE,138,1.5,7.9,88,0.00,,,-99.99,Meteorologica,2013-06-27 19:42:00,
2013-06-27 14:47:00,76.6,72.7,29.89,East,83,0.0,5.4,87,0.00,,,-99.99,Meteorologica,2013-06-27 19:47:00,
2013-06-27 14:53:00,76.4,72.6,29.92,SE,136,5.4,7.6,88,0.00,,,-99.99,Meteorologica,2013-06-27 19:53:00,
2013-06-27 14:58:00,76.4,72.4,29.92,NE,36,3.6,0.0,87,0.00,,,-99.99,Meteorologica,2013-06-27 19:58:00,
2013-06-27 15:03:00,76.3,72.2,29.90,SE,142,2.9,0.0,87,0.00,,,-99.99,Meteorologica,2013-06-27 20:03:00,
2013-06-27 15:08:00,76.5,71.8,29.88,NNW,328,1.6,3.2,85,0.00,,,-99.99,Meteorologica,2013-06-27 20:08:00,
2013-06-27 15:13:00,77.0,72.8,29.90,NNW,328,0.0,0.0,86,0.00,,,-99.99,Meteorologica,2013-06-27 20:13:00,
2013-06-27 15:18:00,77.4,73.3,29.93,NNW,328,0.0,0.0,87,0.00,,,-99.99,Meteorologica,2013-06-27 20:18:00,
2013-06-27 15:24:00,77.7,73.2,29.93,SE,135,1.7,6.3,86,0.00,,,-99.99,Meteorologica,2013-06-27 20:24:00,
2013-06-27 15:29:00,77.4,72.6,29.94,NNE,31,6.1,10.8,85,0.00,,,-99.99,Meteorologica,2013-06-27 20:29:00,
2013-06-27 15:35:00,77.5,73.2,29.94,NNW,335,4.0,6.8,86,0.00,,,-99.99,Meteorologica,2013-06-27 20:35:00,
2013-06-27 15:41:00,78.0,72.6,29.94,North,359,3.7,8.4,83,0.00,,,-99.99,Meteorologica,2013-06-27 20:41:00,
2013-06-27 15:46:00,78.3,72.5,29.95,North,353,5.3,11.5,82,0.00,,,-99.99,Meteorologica,2013-06-27 20:46:00,
2013-06-27 15:51:00,79.0,72.6,29.95,NE,56,8.3,13.5,80,0.00,,,-99.99,Meteorologica,2013-06-27 20:51:00,
2013-06-27 15:56:00,79.3,73.0,29.95,West,261,2.5,13.4,80,0.00,,,-99.99,Meteorologica,2013-06-27 20:56:00,
2013-06-27 16:01:00,79.8,71.4,29.94,NE,35,8.0,13.2,75,0.00,,,-99.99,Meteorologica,2013-06-27 21:01:00,
2013-06-27 16:06:00,80.1,71.5,29.94,ENE,67,4.1,9.5,74,0.00,,,-99.99,Meteorologica,2013-06-27 21:06:00,
2013-06-27 16:12:00,80.2,70.9,29.94,East,92,8.0,13.7,72,0.00,,,-99.99,Meteorologica,2013-06-27 21:12:00,
2013-06-27 16:17:00,80.2,70.7,29.94,NE,46,4.2,13.4,72,0.00,,,-99.99,Meteorologica,2013-06-27 21:17:00,
2013-06-27 16:23:00,80.0,70.6,29.93,ENE,62,5.3,5.8,72,0.00,,,-99.99,Meteorologica,2013-06-27 21:23:00,
2013-06-27 16:29:00,80.3,70.4,29.94,NE,43,8.5,12.1,71,0.00,,,-99.99,Meteorologica,2013-06-27 21:29:00,
2013-06-27 16:34:00,80.1,69.7,29.94,NNE,19,4.3,9.7,70,0.00,,,-99.99,Meteorologica,2013-06-27 21:34:00,
2013-06-27 16:39:00,79.8,70.0,29.93,ENE,64,4.8,8.9,71,0.00,,,-99.99,Meteorologica,2013-06-27 21:39:00,
2013-06-27 16:44:00,79.7,69.9,29.93,NNE,31,3.5,6.8,71,0.00,,,-99.99,Meteorologica,2013-06-27 21:44:00,
2013-06-27 16:50:00,79.8,69.4,29.93,East,81,3.6,6.0,70,0.00,,,-99.99,Meteorologica,2013-06-27 21:50:00,
2013-06-27 16:56:00,79.8,69.7,29.93,NNE,18,2.8,9.2,71,0.00,,,-99.99,Meteorologica,2013-06-27 21:56:00,
2013-06-27 17:01:00,79.4,69.2,29.93,NE,54,0.5,8.9,70,0.00,,,-99.99,Meteorologica,2013-06-27 22:01:00,
2013-06-27 17:06:00,79.3,68.8,29.93,NE,50,3.3,7.7,69,0.00,,,-99.99,Meteorologica,2013-06-27 22:06:00,
2013-06-27 17:11:00,79.3,69.3,29.93,North,8,2.7,9.7,71,0.00,,,-99.99,Meteorologica,2013-06-27 22:11:00,
2013-06-27 17:17:00,79.8,68.1,29.93,NE,38,2.8,13.2,66,0.00,,,-99.99,Meteorologica,2013-06-27 22:17:00,
2013-06-27 17:22:00,80.0,68.2,29.93,NE,42,6.6,10.0,66,0.00,,,-99.99,Meteorologica,2013-06-27 22:22:00,
2013-06-27 17:27:00,79.7,68.6,29.93,NNE,32,1.8,11.2,68,0.00,,,-99.99,Meteorologica,2013-06-27 22:27:00,
2013-06-27 17:32:00,79.7,67.3,29.93,NE,46,7.0,13.3,65,0.00,,,-99.99,Meteorologica,2013-06-27 22:32:00,
2013-06-27 17:37:00,79.4,67.0,29.93,East,87,5.3,13.9,65,0.00,,,-99.99,Meteorologica,2013-06-27 22:37:00,
2013-06-27 17:43:00,78.9,66.6,29.92,NNE,25,4.5,6.1,65,0.00,,,-99.99,Meteorologica,2013-06-27 22:43:00,
2013-06-27 17:48:00,79.0,67.1,29.93,ENE,77,3.7,5.7,66,0.00,,,-99.99,Meteorologica,2013-06-27 22:48:00,
2013-06-27 17:53:00,79.1,67.2,29.93,NE,36,0.0,0.0,66,0.00,,,-99.99,Meteorologica,2013-06-27 22:53:00,
2013-06-27 17:58:00,79.2,67.9,29.92,ENE,64,0.0,0.0,67,0.00,,,-99.99,Meteorologica,2013-06-27 22:58:00,
2013-06-27 18:03:00,79.2,67.1,29.92,ENE,70,3.2,0.0,66,0.00,,,-99.99,Meteorologica,2013-06-27 23:03:00,
2013-06-27 18:08:00,79.2,67.4,29.92,NE,54,1.1,5.8,66,0.00,,,-99.99,Meteorologica,2013-06-27 23:08:00,
2013-06-27 18:15:00,79.2,67.3,29.91,ENE,71,4.4,7.9,66,0.00,,,-99.99,Meteorologica,2013-06-27 23:15:00,
2013-06-27 18:20:00,79.2,67.3,29.92,ENE,71,0.0,3.4,66,0.00,,,-99.99,Meteorologica,2013-06-27 23:20:00,
2013-06-27 18:25:00,79.2,67.6,29.91,NE,47,2.2,3.5,66,0.00,,,-99.99,Meteorologica,2013-06-27 23:25:00,
2013-06-27 18:31:00,79.2,68.0,29.91,ENE,64,5.5,7.9,68,0.00,,,-99.99,Meteorologica,2013-06-27 23:31:00,
2013-06-27 18:36:00,79.1,67.6,29.90,NE,56,4.4,8.9,67,0.00,,,-99.99,Meteorologica,2013-06-27 23:36:00,
2013-06-27 18:41:00,79.0,67.4,29.90,NE,51,5.7,9.0,66,0.00,,,-99.99,Meteorologica,2013-06-27 23:41:00,
2013-06-27 18:47:00,79.1,67.7,29.90,NNE,31,2.9,6.9,67,0.00,,,-99.99,Meteorologica,2013-06-27 23:47:00,
2013-06-27 18:52:00,79.1,67.8,29.91,NNE,32,0.6,7.3,67,0.00,,,-99.99,Meteorologica,2013-06-27 23:52:00,
2013-06-27 18:57:00,79.1,67.4,29.90,ENE,64,4.4,8.1,66,0.00,,,-99.99,Meteorologica,2013-06-27 23:57:00,
2013-06-27 19:02:00,79.0,67.7,29.91,NE,36,1.1,4.5,67,0.00,,,-99.99,Meteorologica,2013-06-28 00:02:00,
2013-06-27 19:07:00,78.9,68.2,29.91,North,354,3.4,7.2,68,0.00,,,-99.99,Meteorologica,2013-06-28 00:07:00,
2013-06-27 19:12:00,78.8,68.2,29.90,NE,40,2.7,10.2,69,0.00,,,-99.99,Meteorologica,2013-06-28 00:12:00,
2013-06-27 19:17:00,78.7,68.1,29.90,NE,40,0.1,4.5,69,0.00,,,-99.99,Meteorologica,2013-06-28 00:17:00,
2013-06-27 19:23:00,78.5,68.2,29.91,ESE,105,0.0,0.0,70,0.00,,,-99.99,Meteorologica,2013-06-28 00:23:00,
2013-06-27 19:29:00,78.4,68.5,29.91,NE,53,0.0,0.0,71,0.00,,,-99.99,Meteorologica,2013-06-28 00:29:00,
2013-06-27 19:34:00,78.2,68.4,29.90,ENE,63,0.0,0.0,71,0.00,,,-99.99,Meteorologica,2013-06-28 00:34:00,
2013-06-27 19:40:00,77.9,68.3,29.90,ENE,63,0.0,0.0,71,0.00,,,-99.99,Meteorologica,2013-06-28 00:40:00,
2013-06-27 19:45:00,77.8,68.1,29.91,ENE,63,0.0,0.0,71,0.00,,,-99.99,Meteorologica,2013-06-28 00:45:00,
2013-06-27 19:50:00,77.9,68.3,29.91,ENE,63,0.0,0.0,71,0.00,,,-99.99,Meteorologica,2013-06-28 00:50:00,
2013-06-27 19:55:00,77.8,68.1,29.91,NE,36,0.0,0.0,71,0.00,,,-99.99,Meteorologica,2013-06-28 00:55:00,
2013-06-27 20:00:00,77.8,68.5,29.91,NE,36,0.0,0.0,72,0.00,,,-99.99,Meteorologica,2013-06-28 01:00:00,
2013-06-27 20:06:00,77.8,68.4,29.90,NE,36,0.0,0.0,72,0.00,,,-99.99,Meteorologica,2013-06-28 01:06:00,
2013-06-27 20:11:00,77.4,68.1,29.91,NE,36,0.0,0.0,72,0.00,,,-99.99,Meteorologica,2013-06-28 01:11:00,
2013-06-27 20:16:00,77.4,68.2,29.91,NE,36,0.0,0.0,72,0.00,,,-99.99,Meteorologica,2013-06-28 01:16:00,
2013-06-27 20:21:00,77.2,68.3,29.91,NE,36,0.1,1.4,73,0.00,,,-99.99,Meteorologica,2013-06-28 01:21:00,
2013-06-27 20:26:00,77.0,68.3,29.93,NE,36,0.0,0.0,74,0.00,,,-99.99,Meteorologica,2013-06-28 01:26:00,
2013-06-27 20:31:00,76.9,68.3,29.93,NE,36,0.0,0.0,74,0.00,,,-99.99,Meteorologica,2013-06-28 01:31:00,
2013-06-27 20:36:00,76.7,68.3,29.93,NE,36,0.0,0.0,75,0.00,,,-99.99,Meteorologica,2013-06-28 01:36:00,
2013-06-27 20:41:00,76.6,68.4,29.93,NE,36,0.0,0.0,75,0.00,,,-99.99,Meteorologica,2013-06-28 01:41:00,
2013-06-27 20:46:00,76.3,68.0,29.94,NE,36,0.0,0.0,75,0.00,,,-99.99,Meteorologica,2013-06-28 01:46:00,
2013-06-27 20:51:00,76.5,68.4,29.96,SSW,207,1.9,6.1,75,0.00,,,-99.99,Meteorologica,2013-06-28 01:51:00,
2013-06-27 20:56:00,76.5,67.9,29.97,ESE,104,0.0,4.3,74,0.00,,,-99.99,Meteorologica,2013-06-28 01:56:00,
2013-06-27 21:01:00,76.7,67.3,29.97,SSW,203,2.9,6.6,72,0.00,,,-99.99,Meteorologica,2013-06-28 02:01:00,
2013-06-27 21:06:00,76.7,67.2,29.97,South,179,0.0,1.2,72,0.00,,,-99.99,Meteorologica,2013-06-28 02:06:00,
2013-06-27 21:12:00,76.9,67.6,29.97,South,179,0.0,0.0,72,0.00,,,-99.99,Meteorologica,2013-06-28 02:12:00,
2013-06-27 21:17:00,76.7,67.7,29.96,South,179,0.0,0.0,73,0.00,,,-99.99,Meteorologica,2013-06-28 02:17:00,
2013-06-27 21:22:00,76.7,68.2,29.96,South,179,0.0,0.0,74,0.00,,,-99.99,Meteorologica,2013-06-28 02:22:00,
2013-06-27 21:27:00,76.1,67.7,29.96,South,179,0.0,0.0,74,0.00,,,-99.99,Meteorologica,2013-06-28 02:27:00,
2013-06-27 21:32:00,76.0,67.8,29.96,South,179,0.0,0.0,75,0.00,,,-99.99,Meteorologica,2013-06-28 02:32:00,
2013-06-27 21:38:00,75.7,67.8,29.95,South,179,0.0,0.0,76,0.00,,,-99.99,Meteorologica,2013-06-28 02:38:00,
2013-06-27 21:43:00,75.3,67.6,29.96,South,179,0.0,0.0,76,0.00,,,-99.99,Meteorologica,2013-06-28 02:43:00,
2013-06-27 21:48:00,75.2,67.8,29.96,South,179,0.0,0.0,77,0.00,,,-99.99,Meteorologica,2013-06-28 02:48:00,
2013-06-27 21:53:00,75.0,67.7,29.96,South,179,0.0,0.0,77,0.00,,,-99.99,Meteorologica,2013-06-28 02:53:00,
2013-06-27 21:58:00,74.8,67.7,29.96,South,179,0.0,0.0,78,0.00,,,-99.99,Meteorologica,2013-06-28 02:58:00,
2013-06-27 22:04:00,74.8,67.9,29.97,South,179,0.0,0.0,78,0.00,,,-99.99,Meteorologica,2013-06-28 03:04:00,
2013-06-27 22:10:00,74.6,67.9,29.97,South,179,0.0,0.0,79,0.00,,,-99.99,Meteorologica,2013-06-28 03:10:00,
2013-06-27 22:15:00,74.1,67.7,29.97,South,179,0.0,0.0,80,0.00,,,-99.99,Meteorologica,2013-06-28 03:15:00,
2013-06-27 22:20:00,74.0,67.8,29.97,South,179,0.0,0.0,80,0.00,,,-99.99,Meteorologica,2013-06-28 03:20:00,
2013-06-27 22:26:00,73.7,67.8,29.98,South,179,0.0,0.0,81,0.00,,,-99.99,Meteorologica,2013-06-28 03:26:00,
2013-06-27 22:31:00,73.6,67.8,29.98,South,179,0.0,0.0,82,0.00,,,-99.99,Meteorologica,2013-06-28 03:31:00,
2013-06-27 22:36:00,73.4,67.8,29.98,South,179,0.0,0.0,82,0.00,,,-99.99,Meteorologica,2013-06-28 03:36:00,
2013-06-27 22:42:00,73.4,68.0,29.98,South,179,0.0,0.0,83,0.00,,,-99.99,Meteorologica,2013-06-28 03:42:00,
2013-06-27 22:47:00,73.2,68.0,29.98,South,179,0.0,0.0,83,0.00,,,-99.99,Meteorologica,2013-06-28 03:47:00,
2013-06-27 22:52:00,73.1,68.1,29.99,South,179,0.0,0.0,84,0.00,,,-99.99,Meteorologica,2013-06-28 03:52:00,
2013-06-27 22:57:00,72.8,68.0,29.99,South,179,0.0,0.0,84,0.00,,,-99.99,Meteorologica,2013-06-28 03:57:00,
2013-06-27 23:02:00,72.7,68.0,29.98,South,179,0.0,0.0,85,0.00,,,-99.99,Meteorologica,2013-06-28 04:02:00,
2013-06-27 23:03:00,72.6,68.0,29.98,South,179,0.0,0.0,85,0.00,,,-99.99,Meteorologica,2013-06-28 04:03:00,
2013-06-27 23:04:00,72.5,67.9,29.98,South,179,0.0,0.0,85,0.00,,,-99.99,Meteorologica,2013-06-28 04:04:00,
2013-06-27 23:05:00,72.5,67.9,29.98,South,179,0.0,0.0,85,0.00,,,-99.99,Meteorologica,2013-06-28 04:05:00,
2013-06-27 23:10:00,72.2,67.9,29.98,South,179,0.0,0.0,86,0.00,,,-99.99,Meteorologica,2013-06-28 04:10:00,
2013-06-27 23:15:00,72.0,67.7,29.99,South,179,0.0,0.0,86,0.00,,,-99.99,Meteorologica,2013-06-28 04:15:00,
2013-06-27 23:16:00,72.0,67.8,29.99,South,179,0.0,0.0,86,0.00,,,-99.99,Meteorologica,2013-06-28 04:16:00,
2013-06-27 23:21:00,71.8,67.8,29.99,South,179,0.0,0.0,87,0.00,,,-99.99,Meteorologica,2013-06-28 04:21:00,
2013-06-27 23:26:00,71.6,67.7,29.99,South,179,0.0,0.0,87,0.00,,,-99.99,Meteorologica,2013-06-28 04:26:00,
2013-06-27 23:31:00,71.4,67.7,29.99,South,179,0.0,0.0,88,0.00,,,-99.99,Meteorologica,2013-06-28 04:31:00,
2013-06-27 23:36:00,71.3,67.7,29.99,South,179,0.0,0.0,88,0.00,,,-99.99,Meteorologica,2013-06-28 04:36:00,
2013-06-27 23:41:00,71.2,67.8,29.98,South,179,0.0,0.0,89,0.00,,,-99.99,Meteorologica,2013-06-28 04:41:00,
2013-06-27 23:46:00,71.0,67.6,29.98,South,179,0.0,0.0,89,0.00,,,-99.99,Meteorologica,2013-06-28 04:46:00,
2013-06-27 23:51:00,71.0,67.7,29.98,South,179,0.0,0.0,89,0.00,,,-99.99,Meteorologica,2013-06-28 04:51:00,
2013-06-27 23:56:00,70.9,67.8,29.98,South,179,0.0,0.0,89,0.00,,,-99.99,Meteorologica,2013-06-28 04:56:00,